Bookmark and Share
Track history (hours):
 

Pertusola

Last reported at 2014-Apr-20 00:20 UTC. Time now 2014-Apr-20 05:45 UTC.
Position N 50°12' W 001°54'.

Length 145 m; draft 7.2 m.

Type: Ship (hazmat cat A). MMSI: 247399000.

NotesDate/timePositionNaut miles runAvg speedWind from/ knotsBaromVisibWave heightAir tempDewpointWater temp
2014-Apr-20 00:20N 50°12' W 001°54'1012.7
2014-Apr-19 23:33N 50°14' W 001°39'1212.3
2014-Apr-19 22:33N 50°18' W 001°21'1312.5
2014-Apr-19 21:33N 50°21' W 001°02'1414.4
2014-Apr-19 20:33N 50°25' W 000°40'1616.0
2014-Apr-19 19:32N 50°28' W 000°15'1616.9
2014-Apr-19 18:33N 50°32' E 000°11'1717.1
2014-Apr-19 17:33N 50°36' E 000°36'1616.3
2014-Apr-19 16:33N 50°46' E 000°58'2813.9
2014-Apr-19 14:33N 51°05' E 001°30'1413.7
2014-Apr-19 13:34N 51°14' E 001°46'1515.4
2014-Apr-19 12:34N 51°27' E 001°59'1717.3
2014-Apr-19 11:33N 51°41' E 002°15'  
2014-Apr-17 01:31N 58°19' E 010°33'1914.1
2014-Apr-17 00:09N 58°03' E 010°52'914.5
2014-Apr-16 23:33N 57°56' E 011°01'1414.0
2014-Apr-16 22:33N 57°44' E 011°15'1414.2
2014-Apr-16 21:33N 57°31' E 011°24'1414.2
2014-Apr-16 20:33N 57°17' E 011°33'1414.1
2014-Apr-16 19:33N 57°04' E 011°42'1414.3
2014-Apr-16 18:33N 56°50' E 011°50'1212.3
2014-Apr-16 17:33N 56°39' E 011°40'12610.5
2014-Apr-16 05:33N 54°34' E 011°19'1414.2
2014-Apr-16 04:33N 54°28' E 011°41'1414.3
2014-Apr-16 03:33N 54°19' E 012°01'10 9.5
2014-Apr-16 02:31N 54°10' E 012°06'1 1.4
2014-Apr-16 01:33N 54°10' E 012°08'0 0.0
2014-Apr-16 00:33N 54°10' E 012°08'0 0.0
2014-Apr-15 23:34N 54°10' E 012°08'0 0.0
2014-Apr-15 22:33N 54°10' E 012°08'0 0.0
2014-Apr-15 21:33N 54°10' E 012°08'0 0.0
2014-Apr-15 20:33N 54°10' E 012°08'0 0.0
2014-Apr-15 19:33N 54°10' E 012°08'0 0.0
2014-Apr-15 18:33N 54°10' E 012°08'0 0.0
2014-Apr-15 17:33N 54°10' E 012°08'0 0.0
2014-Apr-15 16:28N 54°10' E 012°08'1 0.6
2014-Apr-15 15:31N 54°10' E 012°08'5 5.2
2014-Apr-15 14:33N 54°14' E 012°03'7 3.5
2014-Apr-15 12:34N 54°21' E 012°02'10 9.6
2014-Apr-15 11:34N 54°29' E 012°11'1413.6
2014-Apr-15 10:34N 54°40' E 012°24'1414.1
2014-Apr-15 09:34N 54°48' E 012°45'2914.7
2014-Apr-15 07:34N 54°58' E 013°33'1514.9
2014-Apr-15 06:34N 55°03' E 013°58'1514.5
2014-Apr-15 05:33N 55°13' E 014°16'2914.7
2014-Apr-15 03:34N 55°33' E 014°53'1514.8
2014-Apr-15 02:34N 55°40' E 015°16'3014.8
2014-Apr-15 00:33N 55°55' E 016°01'1514.7
2014-Apr-14 23:31N 56°03' E 016°25'13 0.3
2014-Apr-12 20:16N 56°04' E 016°49'1115.8
2014-Apr-12 19:33N 55°58' E 016°32'1615.8
2014-Apr-12 18:33N 55°50' E 016°08'1715.9
2014-Apr-12 17:31N 55°43' E 015°42'1515.9
2014-Apr-12 16:33N 55°36' E 015°17'1616.0
2014-Apr-12 15:34N 55°28' E 014°53'1615.8
2014-Apr-12 14:34N 55°19' E 014°30'1615.8
2014-Apr-12 13:33N 55°06' E 014°14'1515.3
2014-Apr-12 12:33N 54°58' E 013°51'1615.6
2014-Apr-12 11:33N 54°53' E 013°25'1615.7
2014-Apr-12 10:33N 54°48' E 012°59'1615.5
2014-Apr-12 09:33N 54°41' E 012°35'1515.4
2014-Apr-12 08:33N 54°31' E 012°16'1212.1
2014-Apr-12 07:33N 54°25' E 011°58'1615.5
2014-Apr-12 06:33N 54°29' E 011°32'10913.2
2014-Apr-11 22:15N 56°17' E 011°05'2012.1
2014-Apr-11 20:33N 56°34' E 011°27'1515.1
2014-Apr-11 19:33N 56°43' E 011°48'1414.3
2014-Apr-11 18:33N 56°57' E 011°42'1615.7
2014-Apr-11 17:33N 57°12' E 011°33'1616.2
2014-Apr-11 16:33N 57°28' E 011°23'1615.5
2014-Apr-11 15:34N 57°38' E 011°01'1312.8
2014-Apr-11 14:33N 57°41' E 010°38'0 0.3
2014-Apr-11 13:24N 57°41' E 010°37'0 0.0
2014-Apr-11 12:24N 57°41' E 010°37'0 0.0
2014-Apr-11 11:27N 57°41' E 010°37'0 0.0
2014-Apr-11 10:33N 57°41' E 010°37'0 0.0
2014-Apr-11 09:33N 57°41' E 010°37'0 0.0
2014-Apr-11 08:27N 57°41' E 010°37'0 0.0
2014-Apr-11 07:33N 57°41' E 010°37'0 0.1
2014-Apr-11 06:33N 57°42' E 010°37'6 5.6
2014-Apr-11 05:33N 57°47' E 010°40'1110.9
2014-Apr-11 04:33N 57°48' E 010°19'1615.7
2014-Apr-11 03:33N 57°46' E 009°50'31715.0
2014-Apr-10 06:26N 53°53' E 003°27'  

Dump ship's entire track history

sailing weather and tide predictions

Pertusola — IBER — position and weather